TimeCET,TemperatureF,Dew PointF,Humidity,Sea Level PressureIn,VisibilityMPH,Wind Direction,Wind SpeedMPH,Gust SpeedMPH,PrecipitationIn,Events,Conditions,WindDirDegrees,DateUTC
12:55 AM,12.2,-4.0,48,29.80,-9999.0,SW,9.2,-,N/A,,Clear,230,2012-11-05 23:55:00
1:00 AM,12,-5,31,,7,SW,9.2,,,,,230,2012-11-06 00:00:00
1:55 AM,12.2,-2.2,53,29.80,-9999.0,SSW,11.5,-,N/A,,Clear,210,2012-11-06 00:55:00
2:55 AM,12.2,-0.4,57,29.80,6.2,SSW,11.5,-,N/A,,Partly Cloudy,210,2012-11-06 01:55:00
3:55 AM,12.2,3.2,67,29.77,6.2,SW,9.2,-,N/A,,Scattered Clouds,220,2012-11-06 02:55:00
4:00 AM,12,3,53,,7,SW,9.2,,,,Partly Cloudy,220,2012-11-06 03:00:00
4:55 AM,12.2,3.2,67,29.77,6.2,SW,11.5,-,N/A,,Scattered Clouds,220,2012-11-06 03:55:00
5:55 AM,12.2,1.4,62,29.77,6.2,WSW,5.8,-,N/A,,Partly Cloudy,240,2012-11-06 04:55:00
6:55 AM,12.2,1.4,62,29.77,6.2,NW,9.2,-,N/A,,Partly Cloudy,320,2012-11-06 05:55:00
7:00 AM,12,2,49,,25,NW,9.2,,,,Scattered Clouds,320,2012-11-06 06:00:00
7:55 AM,12.2,-0.4,57,29.80,6.2,West,6.9,-,N/A,,Partly Cloudy,260,2012-11-06 06:55:00
10:00 AM,14,1,41,,19,NW,5.8,,,,Partly Cloudy,320,2012-11-06 09:00:00
10:55 AM,14.0,-0.4,53,29.83,6.2,North,4.6,-,N/A,,Scattered Clouds,350,2012-11-06 09:55:00
11:55 AM,14.0,1.4,57,29.86,6.2,West,4.6,-,N/A,,Scattered Clouds,270,2012-11-06 10:55:00
12:55 PM,12.2,1.4,62,29.86,6.2,NNW,4.6,-,N/A,,Scattered Clouds,330,2012-11-06 11:55:00
1:00 PM,12,2,49,,6,NNW,4.6,,,,Partly Cloudy,330,2012-11-06 12:00:00
1:55 PM,12.2,3.2,67,29.86,0.5,NE,4.6,-,N/A,Fog-Snow,Light Snow,40,2012-11-06 12:55:00
2:55 PM,14.0,5.0,67,29.86,0.5,NE,4.6,-,N/A,Fog-Snow,Light Snow,50,2012-11-06 13:55:00
3:55 PM,8.6,5.0,85,29.89,0.5,ENE,9.2,-,N/A,Fog-Snow,Light Snow,70,2012-11-06 14:55:00
4:00 PM,9,4,72,,0,ENE,9.2,,,Snow,Light Snow,70,2012-11-06 15:00:00
4:55 PM,8.6,3.2,79,29.89,3.7,NE,15.0,-,N/A,,Mostly Cloudy,50,2012-11-06 15:55:00
5:55 PM,6.8,3.2,85,29.89,6.2,NNE,12.7,-,N/A,,Scattered Clouds,30,2012-11-06 16:55:00
6:55 PM,6.8,3.2,85,29.95,-9999.0,NNE,10.4,-,N/A,,Clear,20,2012-11-06 17:55:00
7:00 PM,7,3,75,,6,NNE,10.4,,,,Partly Cloudy,20,2012-11-06 18:00:00
7:55 PM,8.6,1.4,73,29.95,-9999.0,NE,11.5,-,N/A,,Clear,40,2012-11-06 18:55:00
8:55 PM,6.8,1.4,79,29.95,-9999.0,ENE,17.3,-,N/A,,Clear,60,2012-11-06 19:55:00
9:55 PM,6.8,1.4,79,29.98,-9999.0,ENE,32.2,-,N/A,,Clear,60,2012-11-06 20:55:00
10:00 PM,6,2,75,,7,ENE,32.2,,,,,60,2012-11-06 21:00:00
10:55 PM,6.8,-7.6,52,29.98,-9999.0,ENE,27.6,-,N/A,,Clear,70,2012-11-06 21:55:00
11:55 PM,6.8,-18.4,31,30.01,-9999.0,ENE,34.5,-,N/A,,Clear,60,2012-11-06 22:55:00